Wetbulb
49.94 48.14 46.31 50.86 53.30 54.17 55.73 54.17 55.01 57.31 60.62 58.89 57.12 57.73 61.60 63.70 62.34 61.60 61.82 62.25 62.88 63.39 65.42 66.07 66.18 67.45 68.63 68.67 68.88 69.46 70.37 69.70 71.62 71.28 71.74 70.13 69.71 69.63 69.44 70.64 72.13 72.08 73.03 73.33
46.56 44.18 49.94 52.79 58.17 56.93 54.57 54.44 54.91 58.35 60.67 59.25 57.71 56.53 60.59 63.89 62.25 62.26 62.17 62.33 63.10 63.88 63.80 65.40 65.85 67.44 68.08 67.89 68.12 68.66 70.20 69.63 71.86 72.10 71.22 70.95 70.36 71.10 71.01 72.77 73.07 73.50 72.88 73.51
43.76 48.15 52.16 50.89 51.56 55.07 53.09 52.44 55.14 56.09 58.32 57.99 56.56 57.09 60.74 62.73 63.63 63.54 63.69 64.18 64.33 63.85 63.74 64.62 65.29 66.75 68.63 67.81 68.30 69.02 70.11 70.65 71.81 71.89 71.49 69.79 69.03 72.00 71.21 72.27 72.59 73.31 73.62 73.98
44.36 48.78 49.04 48.06 47.07 54.67 48.86 57.98 57.77 57.02 53.24 48.81 56.80 49.97 54.54 57.59 59.61 62.25 62.91 63.32 63.83 64.01 65.04 65.46 65.71 66.04 68.65 68.45 69.56 69.87 71.26 71.28 71.61 71.55 71.14 69.03 66.90 68.32 69.34 71.06 71.26 72.19 73.94 73.64
45.10 45.98 45.97 45.06 47.29 52.54 51.95 53.82 56.85 56.72 49.17 45.69 48.44 48.20 52.31 56.35 57.26 59.34 61.15 63.59 64.24 64.61 64.81 65.50 66.31 67.04 69.15 70.17 70.16 70.66 71.29 71.38 71.81 72.28 71.66 69.75 67.49 69.22 70.47 71.02 69.34 69.75 72.11 73.87
46.11 49.00 47.62 46.90 49.05 49.04 50.42 47.38 46.62 46.14 43.95 39.77 45.54 44.48 44.93 52.34 57.12 60.66 60.78 61.22 64.11 64.69 64.94 66.38 67.29 67.98 69.04 70.91 70.73 71.46 70.36 70.79 72.36 72.70 71.65 69.99 68.32 69.83 70.17 70.24 69.72 68.64 70.67 72.52
44.46 45.84 48.04 48.46 45.42 46.62 45.48 39.57 35.96 37.36 37.43 38.03 41.87 42.55 45.63 55.48 59.75 61.99 62.10 61.19 63.75 63.08 64.90 65.65 66.29 66.88 68.67 69.84 70.38 71.89 70.76 70.44 72.27 72.82 71.81 70.93 70.05 70.88 70.65 70.64 69.77 68.01 68.98 71.04
38.41 41.90 47.75 51.05 45.48 44.42 44.34 40.35 36.21 33.61 33.33 36.75 39.12 38.96 47.76 56.72 60.13 62.23 62.91 62.34 63.64 63.45 64.84 65.68 66.65 67.02 68.79 69.65 70.26 71.03 71.82 71.04 71.74 72.68 72.08 71.48 71.59 71.77 71.22 71.02 69.73 69.62 69.36 70.99
41.70 42.90 50.50 52.12 50.37 45.73 42.03 39.87 41.44 36.78 35.86 36.02 37.89 42.63 54.03 56.97 58.24 60.01 59.99 61.73 61.64 62.78 65.42 65.65 67.02 67.46 68.41 69.41 70.43 70.20 71.38 71.87 72.21 72.01 73.65 72.68 72.11 71.60 71.18 71.11 70.37 70.65 70.04 71.44
45.07 41.98 47.34 51.38 51.49 51.52 47.31 44.18 40.26 36.14 33.30 32.61 36.87 37.83 41.72 51.98 56.04 56.87 58.09 58.70 61.42 63.33 63.71 65.36 67.06 67.62 68.40 69.80 70.98 71.51 71.07 71.77 72.61 72.81 72.33 74.42 72.79 72.60 71.83 71.53 70.89 70.71 71.14 71.66
46.39 43.85 46.20 47.82 45.14 44.52 46.48 46.44 40.66 37.79 35.94 33.47 32.59 37.81 44.04 52.64 55.69 54.96 57.14 59.61 61.79 64.08 65.23 64.87 67.34 68.21 68.59 69.84 70.74 71.86 71.59 71.59 72.61 73.18 73.13 72.91 74.84 73.27 72.34 71.23 71.39 71.52 71.11 71.61
48.21 42.33 39.66 43.67 48.40 48.99 46.61 44.25 40.13 39.61 39.32 35.97 34.90 37.87 49.88 52.90 56.23 57.43 57.24 61.18 61.99 62.96 64.11 64.68 67.55 68.18 68.66 69.52 69.99 70.92 71.97 71.84 72.91 74.11 73.73 73.42 73.74 74.71 73.15 72.16 71.81 71.45 71.26 71.13
49.72 41.15 36.60 40.04 43.49 46.91 45.54 46.13 45.01 42.35 39.19 38.15 37.73 40.73 51.57 51.69 55.88 57.24 56.55 57.74 60.53 62.23 64.33 64.47 67.51 68.04 68.56 69.55 70.15 70.76 72.15 72.41 73.45 74.08 74.36 74.03 73.26 74.56 73.69 72.03 71.70 71.42 70.67 69.81
52.46 40.55 39.48 36.85 41.14 42.64 43.48 45.62 45.18 41.91 38.72 38.73 39.94 42.52 48.96 53.82 52.90 57.81 59.00 61.51 62.30 64.39 66.06 64.58 64.67 66.84 68.98 69.84 70.35 71.32 72.31 73.49 74.17 74.22 74.63 74.26 73.75 74.39 74.37 72.05 71.58 71.00 70.60 68.99
46.05 40.76 43.64 43.62 45.19 44.69 43.42 45.09 46.56 42.68 43.25 41.05 43.20 42.55 52.04 55.76 57.12 59.68 60.71 60.24 59.49 59.40 62.13 67.10 69.06 68.23 67.03 67.41 70.39 71.85 72.98 73.98 74.80 74.36 74.30 74.29 74.50 74.75 74.18 72.12 71.12 70.48 69.63 68.52
42.02 38.93 38.46 39.96 45.19 44.59 42.78 45.13 46.34 46.05 47.06 45.56 44.38 47.99 55.44 58.40 59.11 58.47 57.33 57.09 57.05 57.71 59.47 61.71 63.50 67.21 70.52 70.15 69.22 71.81 72.94 74.00 74.68 74.16 74.10 74.44 74.46 74.13 72.65 71.55 70.52 69.73 68.85 68.06
38.94 37.65 36.61 34.21 41.12 42.47 39.27 42.77 45.08 46.10 47.21 46.52 45.43 50.80 57.15 56.45 57.34 57.04 56.28 57.19 57.45 57.77 58.48 58.01 58.49 59.58 66.98 71.74 72.05 70.97 73.23 74.58 74.43 73.86 73.74 73.70 73.67 73.04 71.81 70.83 69.88 68.71 67.75 66.98
39.80 36.99 36.02 34.82 36.96 32.27 42.13 45.52 48.06 48.77 54.61 54.62 53.78 55.40 58.29 56.28 56.94 57.70 58.44 57.93 59.30 61.23 60.53 60.55 60.04 60.03 61.31 70.22 72.39 71.76 73.67 74.18 74.13 73.26 72.73 73.01 73.22 72.07 70.75 70.05 69.31 68.18 67.03 65.61
44.40 37.78 35.78 35.38 34.04 39.32 44.36 46.90 49.22 47.17 52.34 57.75 55.61 56.03 56.51 58.36 57.02 58.08 60.44 59.96 58.41 58.70 59.89 60.72 62.01 62.79 67.97 71.54 71.81 71.71 72.57 73.57 73.60 72.70 72.43 72.91 72.75 71.00 69.94 69.23 68.67 67.53 65.86 64.70
41.14 40.17 39.65 36.08 35.15 35.14 43.28 49.94 54.12 51.76 46.82 55.03 57.55 56.39 57.44 57.06 52.46 55.31 60.98 61.94 60.05 61.51 66.69 68.55 69.80 70.70 69.99 70.10 70.95 71.39 72.07 72.92 72.90 73.01 72.66 73.42 72.29 70.86 69.85 69.31 67.74 65.41 64.76 64.08
42.05 41.26 38.24 37.13 38.11 43.96 50.75 55.00 56.27 45.01 46.40 55.13 56.78 57.01 56.54 53.85 55.88 59.01 62.72 63.27 64.86 67.49 68.35 69.10 68.78 68.26 69.06 69.22 70.52 70.36 70.75 71.77 72.87 73.81 73.36 72.48 71.45 70.01 70.11 68.48 65.68 64.22 63.48 62.84
41.15 40.10 39.67 40.26 39.51 38.30 51.94 51.80 47.92 50.54 52.57 54.58 55.23 56.40 56.15 56.04 58.56 58.49 59.34 58.58 58.74 61.19 67.96 68.58 67.18 67.29 68.21 68.66 69.72 69.07 69.34 70.50 72.93 71.89 69.55 69.52 69.77 69.54 67.74 66.26 63.66 62.50 62.17 61.35
41.31 43.55 41.87 43.44 43.85 49.68 50.01 49.85 51.14 53.25 52.23 52.21 50.90 54.23 55.76 55.22 54.09 54.75 55.85 55.72 57.76 57.78 66.78 67.27 66.39 66.04 66.62 67.68 67.47 68.69 69.28 68.62 69.46 69.98 69.32 69.23 68.85 68.06 66.73 64.63 62.62 62.19 62.29 61.25
44.37 46.07 42.76 43.72 45.47 48.49 51.36 51.20 51.61 52.09 51.37 52.08 52.58 52.72 52.83 52.46 52.80 52.80 53.26 52.85 53.04 55.54 58.09 65.66 65.76 65.42 65.02 65.93 67.02 66.91 68.22 69.19 68.89 68.67 68.80 68.58 67.88 66.00 65.14 64.48 63.29 61.99 61.47 61.33
45.18 45.52 42.60 42.74 45.65 47.97 50.71 50.08 50.12 50.79 51.37 52.05 52.97 52.77 51.43 51.23 50.18 51.14 52.06 52.29 52.38 52.77 56.35 60.25 65.31 65.22 65.55 65.71 65.81 66.53 67.02 67.15 68.12 68.15 67.78 67.60 66.90 65.19 63.62 63.21 62.14 61.50 61.71 60.70
45.84 43.63 42.02 43.02 46.14 46.89 47.69 50.00 51.45 50.09 49.72 50.65 49.79 50.08 50.85 50.54 49.89 50.08 49.73 51.34 51.74 51.60 51.73 56.19 61.40 64.35 65.51 65.68 66.02 65.74 66.50 66.79 67.02 67.99 66.65 66.06 64.77 63.33 62.94 61.15 58.68 53.97 57.29 54.77
MSLP
1003.23 1004.28 1004.71 1004.96 1005.35 1005.29 1005.39 1005.71 1005.08 1004.13 1003.42 1003.75 1004.14 1004.87 1005.76 1005.69 1006.08 1006.29 1006.17 1006.08 1006.27 1006.55 1006.51 1007.01 1007.61 1008.33 1009.19 1010.00 1010.83 1011.29 1012.01 1012.75 1013.53 1014.20 1014.63 1014.96 1015.22 1015.40 1015.54 1015.55 1015.52 1015.62 1015.60 1015.76
1004.09 1004.30 1003.52 1003.72 1004.39 1004.49 1005.00 1004.92 1004.13 1003.58 1002.79 1002.64 1003.60 1004.26 1004.41 1004.46 1004.35 1004.67 1004.62 1005.03 1005.42 1005.67 1006.11 1006.63 1007.23 1007.90 1008.65 1009.50 1010.40 1011.20 1011.57 1012.30 1013.04 1013.43 1013.91 1014.31 1014.71 1015.00 1015.16 1015.39 1015.55 1015.60 1015.42 1015.59
1004.32 1003.40 1002.73 1003.01 1003.94 1004.46 1004.36 1004.13 1003.73 1002.92 1002.60 1002.21 1002.99 1004.41 1003.84 1003.81 1003.99 1004.46 1004.08 1004.29 1005.01 1005.01 1005.26 1005.86 1006.77 1007.48 1008.24 1009.05 1009.73 1010.65 1011.23 1011.81 1012.57 1012.97 1013.79 1014.34 1014.65 1014.95 1015.34 1015.42 1015.90 1015.46 1015.34 1015.47
1003.82 1002.72 1002.92 1002.79 1003.06 1003.33 1003.55 1002.70 1002.93 1002.82 1003.16 1003.35 1002.93 1004.46 1004.30 1004.05 1004.46 1004.27 1003.97 1003.98 1004.09 1004.46 1004.64 1004.99 1005.90 1007.02 1007.62 1008.40 1009.20 1009.98 1010.72 1011.40 1012.13 1012.69 1013.33 1013.99 1014.27 1014.80 1014.89 1015.05 1015.47 1015.39 1015.14 1015.25
1003.50 1002.95 1002.56 1002.40 1002.07 1002.27 1002.44 1001.85 1002.25 1002.86 1003.67 1003.56 1003.66 1004.54 1004.20 1004.42 1004.56 1003.70 1002.98 1002.94 1002.88 1002.69 1003.45 1004.42 1004.92 1005.70 1006.56 1007.74 1008.70 1009.59 1010.31 1011.07 1011.71 1012.34 1012.74 1013.46 1013.91 1014.22 1014.34 1014.72 1015.34 1015.26 1015.17 1014.94
1002.98 1002.13 1002.00 1001.36 1000.87 1000.99 1001.17 1001.63 1002.23 1002.97 1004.00 1004.63 1004.09 1004.65 1004.15 1003.76 1002.39 1002.09 1002.01 1002.14 1002.38 1002.71 1003.26 1003.55 1004.01 1005.40 1006.18 1007.21 1008.33 1009.21 1009.96 1010.67 1011.28 1011.90 1012.38 1012.95 1013.36 1013.90 1014.37 1014.64 1014.94 1015.11 1015.09 1015.24
1003.25 1002.58 1001.77 1001.07 1000.94 1000.61 1001.24 1003.00 1004.07 1005.10 1005.62 1005.95 1004.54 1004.44 1002.27 1000.88 1000.50 1000.74 1000.95 1000.73 1001.59 1002.24 1002.45 1003.14 1004.12 1004.92 1005.90 1006.66 1007.66 1008.65 1009.45 1010.20 1010.83 1011.42 1011.89 1012.39 1012.83 1013.33 1013.78 1014.25 1014.57 1014.94 1015.12 1015.22
1004.39 1003.42 1002.31 1001.58 1001.38 1001.48 1001.75 1003.28 1004.97 1006.03 1007.01 1006.34 1004.57 1003.86 1001.34 1000.03 999.75 1000.09 1000.34 1000.83 1001.21 1001.80 1002.45 1002.42 1003.36 1004.17 1005.13 1006.07 1006.92 1007.96 1008.98 1009.69 1010.34 1010.90 1011.31 1011.75 1012.18 1012.78 1013.21 1013.63 1014.01 1014.35 1014.63 1014.80
1004.80 1004.06 1002.74 1001.80 1001.17 1001.47 1001.76 1003.05 1003.94 1005.74 1007.08 1006.85 1005.41 1003.68 1001.42 1000.36 1000.30 1000.49 1000.47 1001.04 1001.65 1001.62 1001.96 1002.26 1002.53 1003.49 1004.62 1005.59 1006.24 1007.02 1008.12 1008.95 1009.65 1010.18 1010.74 1011.14 1011.60 1012.20 1012.69 1013.07 1013.41 1013.80 1014.17 1014.70
1004.98 1004.89 1003.89 1002.80 1001.62 1001.59 1001.84 1002.61 1004.32 1006.32 1007.50 1007.63 1006.05 1004.52 1002.62 1001.56 1000.88 1000.74 1000.78 1000.49 1001.25 1001.21 1001.51 1002.16 1002.50 1003.00 1003.92 1004.61 1005.36 1006.32 1007.11 1007.81 1008.55 1009.36 1009.92 1010.33 1010.84 1011.45 1012.05 1012.56 1012.99 1013.36 1013.82 1014.38
1005.18 1005.64 1005.27 1004.23 1004.36 1004.01 1003.35 1003.77 1004.82 1006.44 1007.27 1007.66 1006.77 1005.58 1003.08 1001.78 1000.65 1000.74 1000.61 1000.90 1000.61 1000.63 1000.27 1001.03 1001.64 1002.47 1003.04 1004.11 1004.75 1005.54 1006.48 1007.34 1008.20 1008.69 1009.21 1009.74 1010.29 1010.81 1011.48 1011.99 1012.34 1012.87 1013.43 1013.95
1005.66 1006.72 1006.97 1006.15 1004.70 1004.52 1004.55 1005.07 1005.86 1007.08 1007.65 1007.58 1006.77 1004.90 1003.23 1001.65 1000.73 1000.50 1000.69 1000.21 999.95 998.92 998.79 1000.31 1000.94 1001.51 1002.73 1003.43 1004.17 1004.74 1005.84 1006.64 1007.13 1007.59 1008.28 1008.88 1009.49 1010.24 1010.84 1011.33 1011.91 1012.46 1013.19 1013.69
1006.07 1007.49 1007.99 1006.81 1005.79 1004.71 1005.29 1005.33 1005.70 1006.41 1007.31 1007.59 1007.45 1005.53 1003.86 1002.48 1002.07 1001.63 1001.88 1002.09 1001.57 1001.26 999.86 999.58 1000.36 1001.31 1001.98 1002.90 1003.56 1004.04 1004.98 1005.54 1006.29 1007.04 1007.51 1008.19 1008.68 1009.37 1010.05 1010.84 1011.50 1012.15 1012.83 1013.51
1006.64 1008.26 1008.94 1008.95 1008.14 1007.20 1006.44 1005.59 1005.49 1006.09 1006.98 1007.09 1006.74 1005.91 1004.76 1004.25 1003.71 1003.43 1003.00 1002.87 1003.63 1003.33 1002.64 1002.30 1003.08 1002.79 1001.68 1001.71 1002.50 1003.24 1004.12 1005.01 1005.86 1006.38 1006.78 1007.20 1007.76 1008.40 1009.21 1010.26 1011.02 1011.71 1012.34 1013.07
1007.94 1008.84 1009.07 1008.69 1008.06 1007.18 1006.38 1005.81 1005.43 1005.71 1005.55 1006.11 1005.54 1006.30 1006.15 1005.89 1005.67 1005.64 1005.33 1004.60 1004.36 1004.77 1004.74 1004.97 1004.81 1004.75 1004.86 1004.77 1003.29 1002.88 1003.62 1004.52 1005.13 1005.80 1006.26 1006.45 1006.95 1007.55 1008.56 1009.60 1010.44 1011.21 1011.88 1012.54
1008.94 1009.37 1009.50 1009.27 1008.15 1007.35 1006.61 1005.72 1005.25 1004.99 1004.76 1004.72 1005.21 1006.41 1006.60 1006.98 1006.80 1005.95 1005.93 1005.58 1005.39 1005.22 1005.62 1005.44 1004.96 1004.51 1004.58 1004.88 1004.39 1004.08 1003.53 1003.90 1004.37 1005.12 1005.38 1006.15 1006.90 1007.28 1007.76 1008.65 1009.67 1010.62 1011.42 1012.15
1009.50 1009.74 1010.35 1010.09 1008.89 1007.98 1006.90 1005.37 1004.92 1004.62 1004.21 1004.39 1005.24 1006.39 1006.55 1006.97 1006.86 1006.91 1006.88 1006.50 1006.15 1005.59 1005.05 1004.27 1004.00 1004.34 1004.04 1003.75 1004.27 1003.59 1003.45 1003.45 1004.18 1004.38 1005.13 1005.72 1006.43 1007.26 1007.89 1008.31 1009.05 1009.92 1010.74 1011.63
1009.06 1009.94 1010.52 1010.65 1009.68 1008.69 1006.30 1004.87 1004.47 1004.54 1004.69 1004.73 1005.34 1005.96 1006.16 1006.38 1006.44 1006.76 1006.72 1006.47 1006.12 1005.59 1005.23 1004.82 1004.50 1002.99 1001.68 1002.31 1003.46 1002.87 1002.96 1003.24 1003.27 1004.01 1004.59 1005.26 1006.10 1006.93 1007.59 1008.17 1008.73 1009.42 1009.98 1010.73
1007.64 1009.24 1010.60 1010.59 1009.94 1008.28 1006.07 1004.44 1003.91 1004.06 1005.40 1005.56 1005.43 1005.81 1006.10 1006.42 1006.17 1006.65 1006.89 1006.47 1006.09 1005.80 1005.73 1005.49 1004.73 1004.15 1003.35 1003.46 1003.23 1002.73 1001.67 1002.33 1002.95 1003.06 1003.61 1004.33 1005.19 1006.21 1007.00 1007.65 1008.33 1009.27 1010.12 1011.22
1007.74 1008.43 1009.70 1010.44 1009.74 1008.27 1005.91 1004.39 1003.43 1003.56 1005.58 1005.82 1005.58 1005.59 1005.71 1005.90 1006.61 1006.52 1005.85 1005.72 1005.44 1005.30 1005.23 1004.98 1004.78 1004.75 1004.71 1004.37 1002.41 1001.37 1001.31 1001.74 1001.90 1002.22 1002.74 1003.65 1004.43 1005.33 1006.17 1006.81 1007.85 1009.07 1009.67 1010.65
1008.60 1008.98 1009.32 1009.24 1009.00 1007.49 1006.22 1004.76 1003.72 1004.48 1006.26 1005.67 1005.51 1005.22 1005.26 1005.78 1005.92 1005.84 1005.63 1005.48 1005.14 1005.05 1004.97 1005.00 1004.59 1004.58 1004.61 1003.98 1002.60 1001.87 1001.80 1001.70 1001.60 1002.24 1002.78 1003.66 1004.66 1005.60 1005.92 1006.53 1007.43 1008.37 1009.40 1010.20
1009.38 1009.50 1009.60 1009.32 1008.51 1007.53 1005.92 1005.02 1005.47 1005.68 1005.52 1005.51 1005.04 1004.81 1004.87 1004.97 1005.20 1005.37 1005.20 1005.23 1005.07 1004.87 1004.85 1004.67 1004.64 1004.63 1004.44 1003.53 1003.23 1002.83 1002.53 1002.43 1002.10 1002.41 1003.68 1004.66 1005.13 1005.64 1006.24 1006.87 1007.26 1008.10 1009.03 1009.91
1009.72 1009.33 1009.44 1009.18 1008.26 1007.47 1006.60 1006.35 1005.97 1005.73 1005.81 1005.47 1005.09 1004.73 1004.64 1004.78 1004.99 1005.07 1005.21 1005.04 1004.77 1004.71 1004.79 1004.86 1004.79 1004.71 1004.49 1004.05 1003.93 1003.50 1003.07 1002.87 1002.83 1002.56 1003.26 1004.16 1004.67 1005.26 1005.70 1006.32 1006.87 1007.97 1008.71 1009.62
1009.57 1009.27 1009.38 1009.09 1008.08 1007.45 1006.83 1006.56 1006.30 1006.08 1005.88 1005.40 1005.19 1005.02 1004.82 1004.87 1004.98 1005.03 1005.03 1004.95 1004.84 1004.73 1004.72 1004.76 1004.78 1004.63 1004.48 1004.41 1004.23 1003.80 1003.60 1003.13 1003.40 1002.80 1003.56 1004.11 1004.49 1004.97 1005.51 1006.33 1005.55 1007.10 1008.47 1009.68
1009.82 1009.26 1009.01 1008.87 1008.15 1007.61 1007.09 1006.74 1006.49 1006.19 1005.94 1005.66 1005.29 1004.96 1004.76 1004.74 1004.85 1004.92 1005.04 1005.11 1004.92 1004.67 1004.54 1004.55 1004.47 1004.21 1004.04 1003.85 1003.88 1003.93 1003.89 1003.88 1003.61 1003.67 1003.67 1003.85 1004.58 1005.22 1005.63 1006.12 1006.28 1006.76 1007.33 1007.96
1009.16 1008.68 1008.71 1007.82 1007.47 1007.60 1007.10 1006.45 1006.13 1005.92 1005.76 1005.61 1005.34 1005.13 1004.89 1004.83 1004.73 1004.73 1004.96 1005.05 1005.05 1004.85 1004.36 1004.34 1004.17 1003.96 1003.76 1003.79 1003.67 1003.53 1003.68 1003.65 1003.89 1003.83 1003.68 1004.03 1004.56 1005.40 1005.84 1006.16 1006.94 1007.21 1007.69 1008.28
Wind_Speed
4 6 5 12 10 7 6 4 6 3 7 3 7 10 15 17 12 18 17 18 19 19 16 14 12 18 19 14 16 15 14 12 9 4 4 3 4 3 3 3 5 6 5 5
7 5 12 6 5 8 6 5 4 3 7 2 10 8 12 16 14 22 21 20 19 18 12 14 14 15 17 17 13 12 16 14 11 8 4 3 3 2 2 1 4 6 5 6
7 12 8 7 4 7 6 9 9 8 8 6 4 3 5 7 4 14 17 18 17 18 17 16 16 15 16 16 16 14 16 15 11 9 5 3 3 2 2 5 6 4 6 6
6 9 7 11 5 8 6 16 13 12 5 5 6 5 7 1 3 7 14 13 17 17 17 17 18 13 18 17 15 15 15 15 11 10 9 6 5 4 4 6 6 4 6 6
11 5 7 5 8 9 12 10 13 16 8 4 5 6 6 6 7 10 16 14 19 20 19 19 21 19 19 17 16 14 15 15 12 12 11 7 5 4 3 3 6 5 5 6
9 5 7 8 7 5 3 5 7 5 4 5 7 5 5 8 19 19 13 10 11 13 17 20 21 16 16 16 16 15 16 16 14 13 11 11 10 7 5 4 5 4 3 3
8 7 8 3 6 7 8 8 4 7 7 6 4 2 13 18 21 22 24 19 13 5 18 18 19 16 16 19 18 16 17 16 14 14 14 12 12 10 9 8 6 5 4 3
1 10 7 7 3 8 5 9 7 2 1 8 4 3 9 10 10 15 13 2 7 9 13 20 21 19 18 19 20 18 17 16 16 14 15 12 10 7 7 8 5 6 6 5
4 6 7 5 5 6 4 1 7 8 3 4 4 8 10 8 3 2 3 2 4 6 8 19 21 20 18 19 21 21 19 16 16 16 12 12 11 9 9 10 7 6 5 4
4 3 3 10 9 11 3 3 3 5 3 1 7 5 6 2 10 5 9 7 8 6 8 8 15 19 17 19 19 19 19 20 20 16 14 12 13 11 9 9 9 7 6 7
1 4 8 5 5 3 9 9 6 6 5 6 2 7 8 12 7 9 4 12 9 10 6 11 17 17 18 17 19 19 18 18 16 16 14 14 12 12 10 10 8 8 8 10
3 4 2 6 7 5 3 1 4 6 7 1 4 8 5 16 8 11 9 15 12 21 27 12 17 19 18 18 19 20 18 18 18 18 16 15 14 12 11 10 9 9 10 10
2 3 5 13 10 9 7 6 3 3 3 0 4 8 7 10 4 6 5 6 1 3 6 14 15 18 20 17 19 19 19 20 18 17 17 15 16 15 13 10 10 10 11 10
7 3 7 6 9 4 7 9 6 6 3 3 6 3 8 11 9 13 9 9 14 19 24 17 13 6 14 19 20 19 19 18 17 17 17 17 17 16 14 11 12 12 12 12
5 0 1 5 6 4 2 9 10 5 7 4 8 4 4 6 8 9 9 12 16 15 17 16 16 14 11 10 11 16 16 17 18 18 17 18 17 16 14 13 13 13 13 12
5 3 3 7 9 8 5 9 8 5 9 6 1 5 1 4 4 13 14 14 15 15 14 14 16 16 15 13 9 12 16 18 18 18 18 15 14 14 15 16 15 14 13 13
2 3 4 5 5 7 8 6 5 8 5 5 4 4 3 1 6 4 7 9 10 9 8 11 10 9 13 15 15 14 17 16 17 17 15 14 14 13 14 15 16 16 15 14
6 4 4 4 4 2 11 5 7 3 2 2 6 6 7 5 4 5 5 5 4 2 5 7 8 8 8 15 16 14 13 16 17 16 14 14 15 14 15 16 16 15 15 16
14 7 2 4 4 6 10 8 2 5 5 8 5 1 3 5 1 2 6 4 4 3 3 4 2 4 10 13 17 16 15 17 17 17 17 16 17 17 17 17 16 12 12 9
4 2 7 3 5 6 7 9 7 3 3 6 1 4 5 5 5 5 7 3 4 2 1 3 2 3 5 12 13 9 15 17 19 18 17 15 17 18 19 18 15 11 11 11
5 3 8 5 4 5 9 9 5 4 7 3 3 4 6 5 5 5 2 2 3 3 2 1 3 4 6 9 9 4 5 13 10 8 10 12 12 12 15 14 12 14 11 10
1 2 2 2 2 4 9 6 6 8 1 3 1 4 1 4 7 6 5 3 3 3 1 4 6 5 6 8 7 7 4 1 8 10 9 9 11 10 8 11 10 13 12 12
2 4 3 6 6 5 5 5 4 4 1 3 3 4 3 5 4 4 4 3 1 4 2 2 1 4 6 6 6 5 2 3 5 10 12 12 11 10 11 13 13 11 11 10
4 1 1 4 3 3 0 2 5 4 4 4 1 1 3 4 2 1 2 1 2 2 2 3 3 4 4 4 6 4 5 4 3 5 9 10 11 11 10 7 7 9 9 9
6 5 2 6 8 5 2 1 2 5 5 6 8 3 2 2 2 3 3 5 5 4 3 3 6 5 6 4 4 5 4 3 4 5 5 9 7 9 10 8 10 10 10 12
6 7 4 8 7 6 7 6 5 5 5 5 3 6 5 3 5 2 1 3 4 8 5 4 7 7 8 7 7 6 6 6 6 6 6 5 7 7 7 7 5 10 5 7
Wind_Direction
321 56 240 240 197 235 181 181 119 246 253 211 245 225 202 237 182 191 187 188 191 197 198 188 171 175 177 167 172 175 171 173 163 158 156 151 173 184 244 220 233 228 204 172
358 274 258 243 169 155 170 139 188 241 261 184 286 271 221 205 190 187 188 193 193 191 185 185 175 171 173 166 165 163 178 172 178 172 173 141 147 177 162 79 231 219 173 175
175 246 288 283 164 178 214 187 191 216 209 253 169 355 279 205 184 198 201 191 193 191 187 178 179 173 174 173 176 164 176 173 177 168 123 80 61 82 105 142 221 230 177 159
222 263 252 283 250 151 219 223 212 254 157 228 123 236 261 146 216 187 208 194 195 197 194 179 177 167 178 179 178 164 166 172 174 161 165 158 168 166 201 170 195 185 160 178
263 270 283 289 244 164 226 246 229 240 197 117 342 87 264 85 239 224 224 198 196 197 182 183 180 175 176 170 173 171 167 173 172 174 173 172 172 170 160 141 150 184 186 175
225 243 173 226 275 227 242 27 23 51 73 26 253 122 257 196 209 219 219 213 203 201 189 187 181 173 172 170 171 173 170 180 176 176 174 180 178 171 155 166 169 183 189 195
330 312 303 213 326 330 74 57 357 4 13 223 4 115 237 217 210 205 216 225 204 193 185 183 176 171 170 170 172 175 177 181 179 181 181 182 180 176 178 180 180 169 176 186
31 341 358 329 182 231 199 138 149 197 245 266 321 305 273 294 219 195 227 158 180 198 202 181 181 175 175 174 173 177 181 184 179 181 185 184 173 178 181 183 179 185 187 183
45 294 305 331 297 130 249 148 189 118 39 49 282 309 320 27 332 235 257 206 160 243 200 188 182 178 177 175 181 181 180 183 184 189 181 185 179 176 185 189 182 185 164 155
318 8 306 303 16 355 0 184 45 9 134 260 294 295 244 228 218 220 222 232 158 186 181 185 188 183 182 181 183 184 183 181 186 187 188 185 185 187 184 186 189 175 174 163
71 98 296 35 13 317 350 21 24 112 117 162 206 297 230 250 209 172 220 151 160 181 197 190 188 193 187 182 181 185 185 185 188 190 187 186 186 186 180 189 190 172 163 166
331 121 324 229 253 36 159 56 109 95 305 27 150 270 355 330 168 173 184 144 159 155 210 202 197 185 186 184 186 186 187 186 190 190 186 187 186 186 185 189 177 157 163 162
330 12 10 346 352 356 29 331 114 129 81 257 92 282 346 336 293 179 88 120 44 346 280 218 185 186 188 185 189 188 188 193 191 187 185 186 188 187 189 178 158 160 154 155
67 105 144 185 229 234 321 345 345 114 90 234 216 276 325 347 3 14 27 69 43 34 26 31 8 306 202 185 188 189 191 191 189 190 187 186 188 189 183 165 159 160 160 155
81 88 21 278 263 290 307 334 323 341 251 166 271 93 300 343 42 37 44 31 52 50 42 35 36 21 351 305 223 194 192 188 188 190 191 193 187 180 171 159 161 160 162 161
2 275 64 333 326 350 335 308 319 299 309 288 19 112 57 335 304 50 37 43 39 40 57 41 33 19 7 357 249 222 198 194 185 193 196 190 186 181 166 160 163 162 165 162
223 142 62 272 312 350 336 250 296 291 287 218 91 174 216 194 82 103 93 67 59 47 35 22 29 20 355 341 330 229 210 187 194 195 191 186 180 174 170 165 161 168 169 159
211 126 123 241 38 299 241 271 223 222 355 75 101 164 208 151 155 182 221 160 140 50 10 10 335 330 335 334 310 254 204 199 192 192 188 179 176 170 169 169 174 172 167 168
200 131 202 154 181 281 313 287 238 287 63 341 117 112 190 197 128 70 199 237 224 223 236 245 213 291 303 299 292 257 194 196 195 191 188 179 172 170 171 175 178 170 165 167
118 80 148 130 160 220 250 301 278 103 35 332 339 104 62 82 64 286 316 292 278 314 303 33 320 268 269 279 312 228 197 195 197 194 189 177 173 173 176 177 168 162 157 159
339 16 194 180 207 285 292 306 345 79 218 266 292 187 150 126 178 200 130 284 236 237 5 347 29 349 316 306 346 3 209 212 203 180 161 167 167 175 180 168 158 156 165 160
250 358 323 31 157 260 325 8 81 221 289 228 178 243 232 129 157 164 158 128 53 351 299 9 6 346 323 343 350 2 34 78 117 122 137 151 156 169 163 167 153 155 156 159
277 158 215 164 215 224 297 126 3 112 293 326 12 21 77 131 144 129 159 136 71 32 236 259 289 335 343 344 346 10 8 351 160 144 150 160 163 168 172 169 157 155 164 164
301 86 237 25 270 330 153 33 39 13 336 307 225 324 28 35 345 124 172 254 293 259 278 259 262 314 317 322 328 334 311 125 153 170 164 163 162 158 156 166 164 159 164 171
211 345 206 259 282 290 172 118 274 321 335 328 308 268 210 156 321 284 296 284 261 273 272 288 251 248 253 256 271 286 268 225 190 179 183 164 161 169 161 165 168 172 178 173
181 220 214 259 246 190 250 264 242 249 245 259 280 317 306 258 238 226 282 279 290 293 277 243 248 255 247 227 236 242 242 206 202 193 158 161 158 163 169 157 144 47 92 167